Aérodrome :
LOGIN :

S'inscrire | Disclaimer

   EN    FR    IT 

 










Légende :    VFR   VFR Marginal   IFR   IFR Intensif   IFR Très Intensif
Visi : 
Plafond : 
>= 8 km
>= 3000ft
5 à 8 km
1000 à 3000 ft
1500m à 5 km
500 à 1000 ft
800 à 1500m
200 à 500 ft
< 800m
< 200 ft
Symboles :   Orages  Brouillard  Fortes neiges  Fortes précipitations  Vent > 20 kt
SIGMETs :   Divers  Orages  Givrage  Turbulence  Onde Orograph.  Cendres Volcan.







- Altitude de l'aérodrome : 699 ft
- Code IATA : PAD


EDLP - Paderborn Lippstadt

DERNIER METAR :
  • 232050Z 24004KT CAVOK 09/06 Q1016

METARs EXPIRÉS :
  • 232020Z 23003KT CAVOK 11/07 Q1016
  • 231950Z 25003KT CAVOK 11/06 Q1016
  • 231920Z 27003KT 220V300 CAVOK 11/07 Q1016
  • 231850Z 28003KT 250V310 CAVOK 13/07 Q1016
  • 231820Z 28005KT 240V320 CAVOK 14/07 Q1015

TAF TAF EDLP
Valide du 23 à 18h jusqu'au 24 à 18h UTC


231700Z 2318/2418 28006KT 9999 FEW040
BECMG 2319/2322 22005KT
BECMG 2403/2406 24012KT
BECMG 2415/2418 25006KT BKN013
Pas de NOTAMs connus pour ce terrain.



MET'MAP, la Météo Aéronautique d'un coup d'oeil ! - Copyright ORBIFLY Décembre 2007 - Disclaimer

ORBIFLY MET'MAP TEAM :

Programmation & Développement : Alexandra Zaïnal
Conception & Développement : Baudouin d'Aumeries
Co-Programmation & Développement : Marc-Olivier Méhu
Soutien technique & logistique : Manuel Goepfert

Contact : metmap@orbifly.com




SOURCES & CREDITS :

   NOAA